Regional Weather Roundup
Issued by NWS Portland, ME

Current Version | Previous Version | Text Only | Print | Product List | Glossary Off
Versions: 1 2 3 4 5 6 7 8 9 10 11 12 13 14 15 16 17 18 19 20 21 22 23 24 25 26 27 28 29 30 31 32 33 34 35 36 37 38 39 40 41 42 43 44 45 46 47 48 49 50
000 ASUS41 KGYX 222105 RWRGYX WEATHER ROUNDUP FOR MAINE AND NEW HAMPSHIRE NATIONAL WEATHER SERVICE GRAY ME 400 PM EST THU FEB 22 2018 MEZ002-005-006-010-012-015-018-020-021-024-026-027-029-222200- MAINE CITY SKY/WX TMP DP RH WIND PRES REMARKS PORTLAND CLOUDY 36 22 56 W7 30.64R SANFORD LGT SNOW 32 30 92 CALM 30.64R VSB 3/4 BAR HARBOR PTSUNNY 32 14 47 N3 30.63R WISCASSET CLOUDY 37 10 32 CALM 30.64R ROCKLAND CLOUDY 35 9 33 VRB5 30.63R FRYEBURG CLOUDY 36 24 62 N5 30.61S LEWISTONAUBURN CLOUDY 36 8 31 N5 30.63R AUGUSTA CLOUDY 35 12 38 N6 30.63R WATERVILLE PTSUNNY 33 11 39 NE5 30.58R BANGOR CLOUDY 32 11 41 NW8 30.63R GREENVILLE N/A 25 7 46 NW10 30.53R WCI 15 MILLINOCKET FAIR 29 8 41 W9 30.61S HOULTON FAIR 27 6 41 VRB5 30.58 PRESQUE ISLE FAIR 25 7 46 N3 30.60R FRENCHVILLE FAIR 19 2 47 N6 30.55S CARIBOU FAIR 23 6 48 NW5 30.58R $$ NHZ002-005-008-009-011-012-014-222200- NEW HAMPSHIRE CITY SKY/WX TMP DP RH WIND PRES REMARKS PORTSMOUTH SNOW 33 31 95 CALM 30.63R VSB 1/4 ROCHESTER LGT SNOW 32 32 100 NW6 30.63R FOG NASHUA LGT SNOW 32 31 96 NW7 30.66R VSB 3/4 MANCHESTER SNOW 32 30 92 NW7 30.64S VSB 1/2 CONCORD SNOW 30 28 92 NW5 30.65R VSB 1/2 LACONIA FLURRIES 31 29 92 SW5 30.63S PLYMOUTH CLOUDY 32 22 65 W7 30.64R BERLIN CLOUDY 32 12 43 VRB3 30.60R WHITEFIELD CLOUDY 31 14 49 NE3 30.62R JAFFREY SNOW 31 30 96 CALM 30.61S VSB 1/4 KEENE SNOW 30 28 92 N6 30.66R VSB 1/2 LEBANON CLOUDY 31 27 85 CALM 30.64S MT WASHINGTON CLOUDY 16 -8 35 NW35 N/A WCI -6 $$ VTZ005-007-008-222200- VERMONT CITY SKY/WX TMP DP RH WIND PRES REMARKS MONTPELIER CLOUDY 29 17 61 NW3 30.65F BURLINGTON CLOUDY 29 14 53 NW8 30.69S $$ MAZ007-012-024-CTZ003-RIZ002-NYZ038-NYZ072-222200- SOUTHERN NEW ENGLAND AND NY CITY SKY/WX TMP DP RH WIND PRES REMARKS BOSTON LGT SNOW 32 29 88 NE9 30.65R VSB 1 WORCESTER LGT SNOW 31 28 89 N7 30.60R VSB 1 NANTUCKET CLOUDY 40 34 79 NE20 30.57R PROVIDENCE LGT RAIN 37 31 78 N10 30.62R HARTFORD LGT SNOW 32 31 96 N9 30.64R FOG ALBANY LGT SNOW 30 26 85 NE5 30.69S VSB 1 NEW YORK CITY LGT RAIN 41 34 76 NE12 30.59S $$ ANZ081-ANZ082-ANZ150-NHZ014-MEZ023>029-222200- COASTAL MARINE OBSERVATIONS STATION/POSITION TIME TEMP WIND PRES WAVE AIR SEA DIR/SP/G HT/PER (UTC) (F) (DEG/KT/KT) (MB) (FT/S) MOUNT DESERT ROC 2100 34 330/ 11/ 12 1036.7R MATINICUS ROCK 2000 33 340/ 6/ 7 1036.2F ISLE OF SHOALS 2000 33 20/ 10/ 11 1037.2R JEFFREYS LEDGE 2036 41 N/A 3/ 5 GEORGES BANK BUO 1950 36 55 1026.4 13/10 $$ .............KEY.............. WCI - WIND CHILL TC - TEMPERATURE IN CELSIUS VSB - VISIBILITY IN MILES HX - HEAT INDEX FAIR- INDICATES FEW OR NO CLOUDS BELOW 12,000 FT, WITH NO SIGNIFICANT WEATHER AND/OR OBSTRUCTIONS TO VISIBILITY.

USA.gov is the U.S. government's official web portal to all federal, state and local government web resources and services.